User: anonymous   Login
Location: Rancho Del Sol Observatory
(38.7214°N, 120.6350°W)
Time: 05:03:57
(UTC-08:00)
Language:

Cosmos 2221 Rocket - Orbit

View from above orbital plane
View from above orbital plane
View from above satellite
View from above satellite

Ground track
Ground track

The orbit data is extracted from the following two-line orbital elements,

1 22237U 92080B   16041.37243696  .00000246  00000-0  30650-4 0  9997
2 22237  82.5103 216.1202 0020252  21.0997  22.2976 14.78232952250637
Epoch (UTC): 10 February 2016 08:56:18
Eccentricity: 0.0020252
inclination: 82.5103°
perigee height: 621 km
apogee height: 649 km
right ascension of ascending node: 216.1202°
argument of perigee: 21.0997°
revolutions per day: 14.78232952
mean anomaly at epoch: 22.2976°
orbit number at epoch: 25063

The dashed part of the orbit path shows where the satellite is in the earth's shadow,  

DLR